User: anonymous   Login
Location: Unspecified
(0.0000°N, 0.0000°E)
Time: 02:16:48
(UTC+00:00)
Language:

Picosat 3 - Orbit

View from above orbital plane
View from above orbital plane
View from above satellite
View from above satellite

Ground track
Ground track

The orbit data is extracted from the following two-line orbital elements,

1 26091U 00004J   24111.74856536  .00007356  00000-0  17757-2 0  9995
2 26091 100.1834  38.4300 0028349  89.7218 270.7220 14.53288613275810
Epoch (UTC): 20 April 2024 17:57:56
Eccentricity: 0.0028349
inclination: 100.1834°
perigee height: 695 km
apogee height: 735 km
right ascension of ascending node: 38.4300°
argument of perigee: 89.7218°
revolutions per day: 14.53288613
mean anomaly at epoch: 270.7220°
orbit number at epoch: 27581

The dashed part of the orbit path shows where the satellite is in the earth's shadow,  

DLR